FW5359 Weather Reports


time (UTC)temp
C
wind
direction
speed
KPH
gust
KPH
rain 1hr
cm
rain 24hr
cm
rain mn
cm
humidity
%
barometer
mb
20260507065301 17 60 3.2 12.9 0.00 0.00 0.00 82 1016.2
20260507064759 17 66 3.2 12.9 0.00 0.00 0.00 82 1016.1
20260507064300 17 62 3.2 12.9 0.00 0.00 0.00 82 1016.0
20260507063758 17 65 3.2 6.4 0.00 0.00 0.00 82 1016.0
20260507063256 17 66 3.2 6.4 0.00 0.00 0.00 82 1016.1
20260507063026 17 66 3.2 12.9 0.00 0.00 0.00 82 1016.1
20260507062255 17 77 4.8 14.5 0.00 0.00 0.00 82 1016.0
20260507061754 17 94 4.8 14.5 0.00 0.00 0.00 82 1015.9
20260507061254 17 63 3.2 9.7 0.00 0.00 0.00 82 1015.9
20260507060254 17 45 4.8 20.9 0.00 0.00 0.00 82 1015.5
20260507055752 17 74 4.8 14.5 0.00 0.00 0.00 82 1015.4
20260507055250 17 78 4.8 17.7 0.00 0.00 0.00 82 1015.4
20260507054748 17 25 6.4 17.7 0.00 0.00 0.00 82 1015.4
20260507054246 17 23 4.8 16.1 0.00 0.00 0.00 82 1015.2
20260507053746 17 57 4.8 14.5 0.00 0.00 0.00 82 1015.2
20260507053246 17 43 4.8 19.3 0.00 0.00 0.00 82 1015.0
20260507052746 17 0 3.2 19.3 0.00 0.00 0.00 82 1014.9
20260507052246 17 0 4.8 19.3 0.00 0.00 0.00 83 1015.0
20260507051744 17 111 4.8 19.3 0.00 0.00 0.00 83 1014.8
20260507051244 17 47 6.4 24.1 0.00 0.00 0.00 83 1014.7
20260507050744 17 61 6.4 24.1 0.00 0.00 0.00 83 1014.6
20260507050243 17 50 6.4 20.9 0.00 0.00 0.00 83 1014.8
20260507050014 17 59 6.4 20.9 0.00 0.00 0.00 83 1014.7
20260507045244 17 50 4.8 14.5 0.00 0.00 0.00 83 1014.9
20260507045014 17 25 4.8 14.5 0.00 0.00 0.00 83 1014.8
20260507044514 17 57 4.8 17.7 0.00 0.00 0.00 83 1014.6
20260507043743 17 78 6.4 17.7 0.00 0.00 0.00 83 1014.7
20260507043237 17 61 6.4 22.5 0.00 0.00 0.00 83 1015.0
20260507042731 17 76 6.4 22.5 0.00 0.00 0.00 83 1015.0
20260507042225 17 55 6.4 20.9 0.00 0.00 0.00 83 1015.0
20260507041719 17 72 6.4 24.1 0.00 0.00 0.00 83 1014.9
20260507041213 17 44 4.8 24.1 0.00 0.00 0.00 83 1014.8
20260507040707 17 50 4.8 14.5 0.00 0.00 0.00 83 1014.6
20260507040202 17 46 4.8 14.5 0.00 0.00 0.00 83 1014.5
20260507035655 17 336 3.2 14.5 0.00 0.00 0.00 83 1014.3
20260507035149 17 46 4.8 17.7 0.00 0.00 0.00 83 1014.3
20260507034642 17 11 3.2 17.7 0.00 0.00 0.00 82 1014.2
20260507034137 17 355 1.6 9.7 0.00 0.00 0.00 82 1014.3
20260507033631 17 53 1.6 14.5 0.00 0.00 0.00 82 1014.1
20260507033125 17 57 1.6 14.5 0.00 0.00 0.00 82 1014.1
20260507032619 17 32 3.2 16.1 0.00 0.00 0.00 82 1014.0
20260507031607 17 41 4.8 22.5 0.00 0.00 0.00 82 1013.9
20260507031101 17 343 3.2 22.5 0.00 0.00 0.00 82 1014.0
20260507030555 17 51 3.2 17.7 0.00 0.00 0.00 82 1014.0
20260507030048 17 79 3.2 17.7 0.00 0.00 0.00 82 1014.0
20260507025543 17 303 3.2 14.5 0.00 0.00 0.00 82 1014.1
20260507025036 17 33 4.8 17.7 0.00 0.00 0.00 82 1014.0
20260507024530 17 44 3.2 17.7 0.00 0.00 0.00 81 1014.0
20260507024025 17 283 3.2 17.7 0.00 0.00 0.00 81 1013.9
20260507023751 18 44 3.2 17.7 0.00 0.00 0.00 81 1014.0
20260507023244 18 30 3.2 20.9 0.00 0.00 0.00 81 1013.9
20260507022738 18 26 3.2 20.9 0.00 0.00 0.00 81 1013.8
20260507022001 18 32 3.2 16.1 0.00 0.00 0.00 81 1013.9
20260507021455 18 355 4.8 20.9 0.00 0.00 0.00 81 1013.8
20260507020949 18 69 4.8 20.9 0.00 0.00 0.00 81 1013.8
20260507020713 18 15 3.2 12.9 0.00 0.00 0.00 80 1013.8
20260507015937 18 29 3.2 14.5 0.00 0.00 0.00 80 1013.6
20260507015431 18 311 3.2 17.7 0.00 0.00 0.00 80 1013.2
20260507014925 18 355 4.8 17.7 0.00 0.00 0.00 80 1013.2
20260507014419 18 51 4.8 16.1 0.00 0.00 0.00 80 1012.9
20260507013407 18 52 6.4 25.7 0.00 0.00 0.00 80 1013.0
20260507013132 18 17 6.4 25.7 0.00 0.00 0.00 79 1012.9
20260507012626 18 44 4.8 17.7 0.00 0.00 0.00 79 1013.0
20260507011851 19 28 4.8 19.3 0.00 0.00 0.00 79 1013.1
20260507011351 19 27 4.8 19.3 0.00 0.00 0.00 79 1013.2
20260507011122 19 34 1.6 12.9 0.00 0.00 0.00 78 1012.9
20260507010354 19 26 3.2 16.1 0.00 0.00 0.00 78 1013.0
20260507005851 19 344 6.4 20.9 0.00 0.00 0.00 78 1012.6
20260507005349 20 37 6.4 22.5 0.00 0.00 0.00 78 1012.5
20260507004347 20 51 6.4 22.5 0.00 0.00 0.00 77 1012.5
20260507003847 20 38 8.0 22.5 0.00 0.00 0.00 77 1012.6
20260507003347 20 29 6.4 22.5 0.00 0.00 0.00 76 1012.5
20260507002847 20 5 6.4 22.5 0.00 0.00 0.00 76 1012.2
20260507002347 21 17 4.8 22.5 0.00 0.00 0.00 75 1012.5
20260507001843 21 54 3.2 14.5 0.00 0.00 0.00 75 1012.5
20260507001615 21 49 4.8 14.5 0.00 0.00 0.00 75 1012.4
20260507001115 21 76 4.8 16.1 0.00 0.00 0.00 75 1012.1
20260507000343 21 30 4.8 17.7 0.00 0.00 0.00 75 1011.9
20260506235842 21 34 6.4 17.7 0.00 0.00 0.00 75 1012.1
20260506235342 21 53 6.4 19.3 0.00 0.00 0.00 74 1011.8
20260506234843 22 53 4.8 19.3 0.00 0.00 0.00 74 1011.7
20260506234343 22 74 4.8 17.7 0.00 0.00 0.00 74 1011.8
20260506233843 22 51 4.8 19.3 0.00 0.00 0.00 73 1011.6
20260506233343 22 67 6.4 19.3 0.00 0.00 0.00 73 1011.6
20260506232842 22 37 8.0 17.7 0.00 0.00 0.00 72 1011.5
20260506232342 23 79 6.4 17.7 0.00 0.00 0.00 72 1011.3
20260506231842 23 36 6.4 20.9 0.00 0.00 0.00 71 1011.2
20260506231613 23 37 6.4 20.9 0.00 0.00 0.00 70 1011.3
20260506231114 24 82 6.4 16.1 0.00 0.00 0.00 70 1011.2
20260506230341 24 34 6.4 19.3 0.00 0.00 0.00 69 1011.3
20260506225841 25 344 6.4 19.3 0.00 0.00 0.00 68 1011.1
20260506225341 25 119 8.0 22.5 0.00 0.00 0.00 67 1011.1
20260506224841 26 53 8.0 22.5 0.00 0.00 0.00 66 1011.0
20260506224339 26 43 6.4 20.9 0.00 0.00 0.00 66 1010.9
20260506223839 27 351 8.0 20.9 0.00 0.00 0.00 67 1010.9
20260506223338 27 81 8.0 22.5 0.00 0.00 0.00 69 1010.7
20260506222841 27 5 6.4 22.5 0.00 0.00 0.00 69 1010.7
20260506222341 27 36 6.4 19.3 0.00 0.00 0.00 69 1010.6
20260506221835 27 106 8.0 19.3 0.00 0.00 0.00 70 1010.5
20260506221329 27 40 8.0 22.5 0.00 0.00 0.00 69 1010.5
20260506220823 27 49 8.0 22.5 0.00 0.00 0.00 69 1010.5
20260506215813 27 54 8.0 22.5 0.00 0.00 0.00 70 1010.5
20260506215538 28 17 8.0 22.5 0.00 0.00 0.00 69 1010.5
20260506214759 28 52 6.4 20.9 0.00 0.00 0.00 68 1010.5
20260506214252 28 81 6.4 20.9 0.00 0.00 0.00 70 1010.4
20260506213746 27 95 6.4 20.9 0.00 0.00 0.00 70 1010.5
20260506213240 27 54 6.4 20.9 0.00 0.00 0.00 70 1010.5
20260506212734 27 12 6.4 20.9 0.00 0.00 0.00 70 1010.6
20260506212228 28 42 6.4 16.1 0.00 0.00 0.00 70 1010.6
20260506211953 28 57 6.4 19.3 0.00 0.00 0.00 69 1010.6
20260506211216 29 29 4.8 19.3 0.00 0.00 0.00 67 1010.4
20260506210710 30 61 3.2 9.7 0.00 0.00 0.00 68 1010.3
20260506210205 29 65 4.8 9.7 0.00 0.00 0.00 67 1010.4
20260506205658 29 67 3.2 8.0 0.00 0.00 0.00 68 1010.5
20260506205424 29 76 1.6 8.0 0.00 0.00 0.00 67 1010.5
20260506204646 29 81 1.6 6.4 0.00 0.00 0.00 67 1010.5
20260506204141 29 81 1.6 4.8 0.00 0.00 0.00 68 1010.5
20260506203635 29 81 3.2 8.0 0.00 0.00 0.00 67 1010.6
20260506203128 30 80 3.2 8.0 0.00 0.00 0.00 66 1010.6
20260506202622 30 81 3.2 8.0 0.00 0.00 0.00 66 1010.6
20260506202116 30 107 3.2 11.3 0.00 0.00 0.00 66 1010.7
20260506201611 30 109 1.6 11.3 0.00 0.00 0.00 66 1010.7
20260506201105 30 225 1.6 6.4 0.00 0.00 0.00 66 1010.7
20260506200559 30 226 1.6 6.4 0.00 0.00 0.00 66 1010.8
20260506200053 30 229 1.6 6.4 0.00 0.00 0.00 67 1010.9
20260506195546 29 238 1.6 6.4 0.00 0.00 0.00 67 1011.0
20260506195041 29 239 1.6 6.4 0.00 0.00 0.00 67 1011.1
20260506194534 30 240 3.2 6.4 0.00 0.00 0.00 68 1011.1
20260506194034 29 241 3.2 6.4 0.00 0.00 0.00 68 1011.1
20260506193522 29 230 3.2 8.0 0.00 0.00 0.00 66 1011.2
20260506193016 29 234 1.6 9.7 0.00 0.00 0.00 69 1011.1
20260506192510 28 100 3.2 11.3 0.00 0.00 0.00 69 1011.1
20260506192004 28 100 3.2 11.3 0.00 0.00 0.00 69 1011.1
20260506191459 28 88 3.2 11.3 0.00 0.00 0.00 69 1011.2
20260506190953 28 165 3.2 11.3 0.00 0.00 0.00 70 1011.2
20260506190447 28 114 3.2 9.7 0.00 0.00 0.00 73 1011.3
20260506185942 28 157 3.2 9.7 0.00 0.00 0.00 72 1011.4
20260506185435 28 115 3.2 11.3 0.00 0.00 0.00 71 1011.4
20260506184929 28 155 3.2 9.7 0.00 0.00 0.00 71 1011.4
20260506184422 28 126 3.2 11.3 0.00 0.00 0.00 74 1011.4
20260506184149 28 138 3.2 11.3 0.00 0.00 0.00 75 1011.6
20260506183411 27 139 4.8 11.3 0.00 0.00 0.00 76 1011.6
20260506182358 27 119 4.8 11.3 0.00 0.00 0.00 76 1011.8
20260506181854 27 117 3.2 11.3 0.00 0.00 0.00 76 1011.8
20260506181354 27 113 3.2 9.7 0.00 0.00 0.00 77 1012.0
20260506180854 26 105 3.2 9.7 0.00 0.00 0.00 78 1011.8
20260506180354 26 79 3.2 11.3 0.00 0.00 0.00 79 1011.9
20260506175852 26 80 4.8 14.5 0.00 0.00 0.00 79 1012.0
20260506175350 26 69 4.8 14.5 0.00 0.00 0.00 79 1012.1
20260506174850 26 132 4.8 12.9 0.00 0.00 0.00 79 1012.1
20260506174349 26 81 3.2 11.3 0.00 0.00 0.00 79 1012.1
20260506173850 26 105 3.2 11.3 0.00 0.00 0.00 80 1012.2
20260506173350 26 111 3.2 11.3 0.00 0.00 0.00 82 1012.1
20260506172850 25 92 3.2 9.7 0.00 0.00 0.00 83 1012.1
20260506172350 25 67 3.2 14.5 0.00 0.00 0.00 82 1012.1
20260506171850 25 78 3.2 14.5 0.00 0.00 0.00 83 1012.1
20260506171345 25 80 3.2 9.7 0.00 0.00 0.00 84 1012.4
20260506170846 25 87 3.2 8.0 0.00 0.00 0.00 83 1012.2
20260506170345 25 85 3.2 11.3 0.00 0.00 0.00 83 1012.2
20260506165846 25 85 3.2 11.3 0.00 0.00 0.00 82 1012.1
20260506165346 25 62 3.2 11.3 0.00 0.00 0.00 83 1012.2
20260506165116 25 59 3.2 11.3 0.00 0.00 0.00 82 1012.1
20260506163846 25 91 1.6 9.7 0.00 0.00 0.00 83 1012.2
20260506163346 25 84 3.2 6.4 0.00 0.00 0.00 84 1012.1
20260506162846 25 84 3.2 6.4 0.00 0.00 0.00 83 1012.1
20260506162617 25 87 3.2 6.4 0.00 0.00 0.00 84 1012.1
20260506161345 25 89 1.6 9.7 0.00 0.00 0.00 84 1012.1
20260506160842 25 97 1.6 9.7 0.00 0.00 0.00 84 1012.0
20260506160613 25 151 1.6 8.0 0.00 0.00 0.00 84 1012.0
20260506160111 25 152 1.6 8.0 0.00 0.00 0.00 84 1011.9
20260506155338 25 153 1.6 8.0 0.00 0.00 0.00 86 1011.8
20260506154838 24 157 1.6 4.8 0.00 0.00 0.00 87 1011.8
20260506154333 24 158 1.6 8.0 0.00 0.00 0.00 87 1011.8
20260506153834 24 158 1.6 8.0 0.00 0.00 0.00 86 1011.8
20260506153332 24 161 0.0 3.2 0.00 0.00 0.00 87 1011.7
20260506152832 24 161 0.0 3.2 0.00 0.00 0.00 87 1011.7
20260506152332 24 161 0.0 3.2 0.00 0.00 0.00 87 1011.7
20260506151831 24 161 0.0 3.2 0.00 0.00 0.00 87 1011.5
20260506151324 24 161 0.0 6.4 0.00 0.00 0.00 87 1011.5
20260506150817 24 161 1.6 6.4 0.00 0.00 0.00 87 1011.4
20260506150311 24 161 0.0 3.2 0.00 0.00 0.00 87 1011.3
20260506145805 24 161 0.0 3.2 0.00 0.00 0.00 87 1011.3
20260506145258 24 161 0.0 3.2 0.00 0.00 0.00 87 1011.3
20260506144753 24 161 1.6 6.4 0.00 0.00 0.00 87 1011.3
20260506144518 23 161 1.6 6.4 0.00 0.00 0.00 87 1011.3
20260506143741 23 161 1.6 6.4 0.00 0.00 0.00 87 1011.4
20260506143235 23 161 0.0 3.2 0.00 0.00 0.00 88 1011.3
20260506142728 23 161 0.0 3.2 0.00 0.00 0.00 88 1011.1
20260506142223 23 161 1.6 6.4 0.00 0.00 0.00 89 1011.1
20260506141717 23 161 1.6 6.4 0.00 0.00 0.00 89 1010.9
20260506141211 23 161 0.0 3.2 0.00 0.00 0.00 90 1010.8
20260506140705 23 161 1.6 6.4 0.00 0.00 0.00 90 1010.8
20260506140159 23 161 1.6 8.0 0.00 0.00 0.00 90 1010.7
20260506135923 23 161 1.6 8.0 0.00 0.00 0.00 90 1010.6
20260506135147 23 107 1.6 4.8 0.00 0.00 0.00 91 1010.5
20260506134641 23 107 1.6 4.8 0.00 0.00 0.00 91 1010.4
20260506134135 23 117 1.6 6.4 0.00 0.00 0.00 91 1010.2
20260506133629 23 117 1.6 6.4 0.00 0.00 0.00 91 1009.9
20260506133123 23 111 1.6 9.7 0.00 0.00 0.00 91 1010.0
20260506132617 23 111 3.2 9.7 0.00 0.00 0.00 91 1010.0
20260506132342 23 128 1.6 9.7 0.00 0.00 0.00 91 1009.8
20260506131605 23 131 1.6 6.4 0.00 0.00 0.00 91 1009.9
20260506131059 23 130 1.6 6.4 0.00 0.00 0.00 91 1009.7
20260506130554 23 130 1.6 6.4 0.00 0.00 0.00 91 1009.6
20260506130317 23 128 1.6 9.7 0.00 0.00 0.00 91 1009.5
20260506125035 23 188 1.6 8.0 0.00 0.00 0.00 91 1009.3
20260506124529 23 188 1.6 8.0 0.00 0.00 0.00 91 1009.3
20260506124022 23 191 1.6 4.8 0.00 0.00 0.00 91 1009.3
20260506123517 23 191 1.6 6.4 0.00 0.00 0.00 91 1009.5
20260506123015 23 191 1.6 6.4 0.00 0.00 0.00 91 1009.5
20260506122515 23 178 1.6 8.0 0.00 0.00 0.00 91 1009.3
20260506122244 23 178 1.6 8.0 0.00 0.00 0.00 91 1009.3
20260506121514 23 188 0.0 4.8 0.00 0.00 0.00 90 1009.5
20260506121011 23 188 1.6 6.4 0.00 0.00 0.00 91 1009.5
20260506120512 23 188 1.6 6.4 0.00 0.00 0.00 90 1009.6
20260506115511 23 188 1.6 4.8 0.00 0.00 0.00 90 1009.5
20260506115009 23 188 0.0 4.8 0.00 0.00 0.00 91 1009.3
20260506114508 23 188 0.0 1.6 0.00 0.00 0.00 90 1009.3
20260506114005 23 188 0.0 4.8 0.00 0.00 0.00 90 1009.5
20260506113734 23 188 0.0 4.8 0.00 0.00 0.00 90 1009.5
20260506113231 23 188 0.0 3.2 0.00 0.00 0.00 90 1009.3
20260506112459 23 188 0.0 0.0 0.00 0.00 0.00 90 1009.3
20260506111957 23 188 0.0 1.6 0.00 0.00 0.00 90 1009.5
20260506111508 23 188 0.0 1.6 0.00 0.00 0.00 90 1009.6
20260506111224 23 188 0.0 3.2 0.00 0.00 0.00 90 1009.6
20260506110451 23 188 1.6 3.2 0.00 0.00 0.00 90 1009.5
20260506110222 23 188 0.0 3.2 0.00 0.00 0.00 90 1009.5
20260506105719 23 188 0.0 3.2 0.00 0.00 0.00 91 1009.3
20260506104449 23 188 0.0 4.8 0.00 0.00 0.00 91 1009.3
20260506103946 23 188 1.6 6.4 0.00 0.00 0.00 91 1009.2
20260506103447 23 188 1.6 6.4 0.00 0.00 0.00 91 1009.1
20260506102947 23 188 0.0 6.4 0.00 0.00 0.00 91 1009.2
20260506102447 23 188 0.0 6.4 0.00 0.00 0.00 91 1009.3
20260506101946 23 189 0.0 3.2 0.00 0.00 0.00 91 1009.3
20260506101446 23 189 0.0 3.2 0.00 0.00 0.00 91 1009.3
20260506100947 23 189 1.6 4.8 0.00 0.00 0.00 91 1009.3
20260506100717 23 189 1.6 4.8 0.00 0.00 0.00 91 1009.3
20260506095947 23 188 1.6 4.8 0.00 0.00 0.00 91 1009.5
20260506094947 23 189 3.2 12.9 0.00 0.00 0.00 91 1009.3
20260506094446 23 167 1.6 9.7 0.00 0.00 0.00 91 1009.3
20260506093946 23 168 1.6 11.3 0.00 0.00 0.00 91 1009.2
20260506093447 23 157 1.6 11.3 0.00 0.00 0.00 91 1009.3
20260506093215 23 152 3.2 11.3 0.00 0.00 0.00 91 1009.2
20260506092445 23 211 3.2 11.3 0.00 0.00 0.00 91 1009.2
20260506091942 23 190 3.2 9.7 0.00 0.00 0.00 90 1009.2
20260506091442 23 175 3.2 9.7 0.00 0.00 0.00 90 1009.1
20260506090942 23 180 3.2 12.9 0.00 0.00 0.00 90 1008.9
20260506090442 23 155 3.2 12.9 0.00 0.00 0.00 90 1009.1
20260506090214 23 107 3.2 12.9 0.00 0.00 0.00 90 1009.0
20260506085445 23 164 3.2 12.9 0.00 0.00 0.00 90 1008.9
20260506084442 23 187 3.2 14.5 0.00 0.00 0.00 89 1009.1
20260506083942 23 163 4.8 14.5 0.00 0.00 0.00 89 1009.2
20260506083441 23 193 4.8 11.3 0.00 0.00 0.00 89 1009.2
20260506082939 23 155 6.4 16.1 0.00 0.00 0.00 89 1009.2
20260506082707 23 152 4.8 16.1 0.00 0.00 0.00 89 1009.2
20260506081935 23 138 4.8 14.5 0.00 0.00 0.00 89 1009.2
20260506081435 23 150 4.8 14.5 0.00 0.00 0.00 89 1009.3
20260506080934 23 165 4.8 11.3 0.00 0.00 0.00 89 1009.6
20260506080434 23 162 3.2 14.5 0.00 0.00 0.00 89 1009.5
20260506073410 23 159 1.6 8.0 0.00 0.00 0.00 89 1009.6
20260506072904 23 161 1.6 8.0 0.00 0.00 0.00 89 1009.7
20260506072358 23 161 1.6 8.0 0.00 0.00 0.00 89 1009.7
20260506071853 23 163 1.6 8.0 0.00 0.00 0.00 89 1009.9
20260506071347 23 163 1.6 11.3 0.00 0.00 0.00 89 1009.8
20260506070841 23 165 1.6 11.3 0.00 0.00 0.00 89 1009.8
20260506070335 23 139 1.6 8.0 0.00 0.00 0.00 89 1009.9